Burleson, TX

1:16 PM CDT on September 27, 2016 (GMT -0500)
Fort Worth Spinks

Weather History for KFWS - November, 2013

Change the Weather History Date:

Thursday, November 14, 2013

  Actual Average (KDFW) Record (KDFW)
Temperature  
Mean Temperature 44 °F 57 °F  
Max Temperature 59 °F 68 °F 89 °F (1989)
Min Temperature 28 °F 47 °F 21 °F (1916)
Degree Days  
Heating Degree Days 22 9  
Month to date heating degree days 94  
Since 1 July heating degree days 166  
Cooling Degree Days 0 1  
Month to date cooling degree days 22  
Year to date cooling degree days 2745  
Moisture  
Dew Point 32 °F    
Average Humidity 65    
Maximum Humidity 90    
Minimum Humidity 27    
Precipitation  
Precipitation 0.00 in 0.09 in 1.82 in (1994)
Month to date precipitation 1.47  
Year to date precipitation 32.35  
Snow  
Snow 0.00 in 0.00 in 0.50 in (1920)
Month to date snowfall 0.0  
Since 1 July snowfall 0.0  
Since 1 September snowfall 0.0  
Snow Depth -    
Sea Level Pressure  
Sea Level Pressure 30.20 in    
Wind  
Wind Speed 5 mph (SSE)    
Max Wind Speed 21 mph    
Max Gust Speed 20 mph    
Visibility 13 miles    
Events      
T = Trace of Precipitation, MM = Missing Value Source: NWS Daily Summary

Daily Weather History Graph

Daily Weather History Graph

Search for Another Location

Airport or City:

Trip Planner

Search our weather history database for the weather conditions in past years. The results will help you decide how hot, cold, wet, or windy it might be!

Date:

Astronomy

Nov. 14, 2013 Rise Set
Actual Time 6:58 AM CST 5:28 PM CST
Civil Twilight 6:32 AM CST 5:54 PM CST
Nautical Twilight 6:02 AM CST 6:24 PM CST
Astronomical Twilight 5:33 AM CST 6:53 PM CST
Moon 3:43 PM CST (11/14) 4:03 AM CST (11/14)
Length of Visible Light 11h 22m
Length of Day
10h 30m
Waxing Gibbous, 92% of the Moon is Illuminated
Nov 14
Waxing Gibbous
Nov 17
Full
Nov 25
Last Quarter
Dec 2
New
Dec 9
First Quarter

Hourly Weather History & Observations

Time (CST) Temp. Windchill Dew Point Humidity Pressure Visibility Wind Dir Wind Speed Gust Speed Precip Events Conditions
12:15 AM 32.5 °F - 26.1 °F 77% 30.38 in 10.0 mi Calm Calm - N/A   Clear
12:35 AM 32.5 °F - 26.1 °F 77% 30.38 in 10.0 mi Calm Calm - N/A   Clear
12:55 AM 31.8 °F - 26.6 °F 81% 30.38 in 10.0 mi Calm Calm - N/A   Clear
1:15 AM 30.2 °F 25.4 °F 24.6 °F 80% 30.37 in 10.0 mi SSW 4.6 mph - N/A   Clear
1:35 AM 34.0 °F 29.8 °F 26.2 °F 73% 30.37 in 10.0 mi SSW 4.6 mph - N/A   Clear
1:55 AM 32.0 °F - 24.1 °F 73% 30.36 in 10.0 mi Calm Calm - N/A   Clear
2:15 AM 30.9 °F - 25.3 °F 80% 30.36 in 10.0 mi Calm Calm - N/A   Clear
2:35 AM 28.2 °F 24.4 °F 24.3 °F 85% 30.35 in 10.0 mi South 3.5 mph - N/A   Clear
2:55 AM 28.8 °F - 25.0 °F 86% 30.35 in 10.0 mi Calm Calm - N/A   Clear
3:15 AM 28.9 °F - 26.4 °F 90% 30.35 in 10.0 mi Calm Calm - N/A   Clear
3:35 AM 29.3 °F - 25.3 °F 85% 30.34 in 10.0 mi Calm Calm - N/A   Clear
3:55 AM 29.1 °F 25.4 °F 24.6 °F 83% 30.33 in 10.0 mi SSE 3.5 mph - N/A   Clear
4:15 AM 30.0 °F 26.5 °F 25.7 °F 84% 30.33 in 10.0 mi South 3.5 mph - N/A   Clear
4:35 AM 30.2 °F 25.4 °F 25.9 °F 84% 30.32 in 10.0 mi South 4.6 mph - N/A   Clear
4:55 AM 30.7 °F 24.9 °F 26.8 °F 85% 30.31 in 10.0 mi South 5.8 mph - N/A   Clear
5:15 AM 32.0 °F 25.6 °F 27.3 °F 83% 30.31 in 10.0 mi South 6.9 mph - N/A   Clear
6:47 AM 33.8 °F 29.6 °F 26.6 °F 75% 30.30 in 20.0 mi SSE 4.6 mph - N/A   Clear
7:56 AM 37.4 °F 32.1 °F 28.4 °F 70% 30.29 in 20.0 mi SSE 6.9 mph - N/A   Mostly Cloudy
8:53 AM 42.8 °F 37.0 °F 30.2 °F 61% 30.29 in 20.0 mi SSE 10.4 mph - N/A   Mostly Cloudy
9:52 AM 48.2 °F - 30.2 °F 50% 30.26 in 20.0 mi South 11.5 mph - N/A   Clear
10:51 AM 51.8 °F - 28.4 °F 41% 30.23 in 20.0 mi SSE 12.7 mph - N/A   Clear
11:52 AM 53.6 °F - 28.4 °F 38% 30.21 in 20.0 mi South 11.5 mph - N/A   Clear
12:47 PM 57.2 °F - 28.4 °F 33% 30.17 in 20.0 mi SSE 12.7 mph - N/A   Clear
1:47 PM 59.0 °F - 24.8 °F 27% 30.12 in 20.0 mi SSE 11.5 mph - N/A   Clear
2:50 PM 59.0 °F - 24.8 °F 27% 30.10 in 20.0 mi SSE 20.7 mph - N/A   Mostly Cloudy
3:48 PM 57.2 °F - 26.6 °F 31% 30.08 in 20.0 mi SE 12.7 mph - N/A   Scattered Clouds
4:48 PM 55.4 °F - 28.4 °F 36% 30.06 in 20.0 mi SE 16.1 mph - N/A   Mostly Cloudy
5:50 PM 55.4 °F - 30.2 °F 38% 30.04 in 20.0 mi SE 12.7 mph - N/A   Scattered Clouds
6:50 PM 55.4 °F - 35.6 °F 47% 30.06 in 20.0 mi SSE 10.4 mph - N/A   Mostly Cloudy
7:55 PM 55.0 °F - 39.4 °F 56% 30.05 in 10.0 mi SSE 10.4 mph 16.1 mph N/A   Scattered Clouds
8:15 PM 55.4 °F - 40.1 °F 56% 30.05 in 10.0 mi SSE 10.4 mph - N/A   Mostly Cloudy
8:35 PM 55.8 °F - 41.0 °F 58% 30.06 in 10.0 mi SSE 11.5 mph 17.3 mph N/A   Overcast
8:55 PM 55.4 °F - 41.7 °F 60% 30.06 in 10.0 mi South 11.5 mph - N/A   Overcast
9:15 PM 55.4 °F - 42.4 °F 62% 30.05 in 10.0 mi SSE 12.7 mph - N/A   Overcast
9:35 PM 55.4 °F - 43.3 °F 64% 30.06 in 10.0 mi South 15.0 mph 19.6 mph N/A   Overcast
9:55 PM 54.9 °F - 43.7 °F 66% 30.06 in 10.0 mi South 12.7 mph 18.4 mph N/A   Overcast
10:15 PM 54.9 °F - 44.6 °F 68% 30.06 in 10.0 mi South 13.8 mph 19.6 mph N/A   Overcast
10:35 PM 54.9 °F - 44.6 °F 68% 30.06 in 10.0 mi South 11.5 mph - N/A   Overcast
10:55 PM 54.9 °F - 44.8 °F 69% 30.04 in 10.0 mi South 12.7 mph 18.4 mph N/A   Overcast
11:15 PM 54.9 °F - 45.0 °F 69% 30.04 in 10.0 mi South 10.4 mph - N/A   Overcast
11:35 PM 54.7 °F - 45.3 °F 71% 30.03 in 7.0 mi South 11.5 mph - N/A   Overcast
11:55 PM 54.1 °F - 45.5 °F 73% 30.04 in 7.0 mi South 8.1 mph 16.1 mph N/A   Overcast